Location: Borowce
(50.8255°N, 19.6209°E)
Time: 21:51:26
(UTC+00:00)

NOSS 2-1 (C) - Pass Details

Date: 19 May 2025
Orbit: 378 x 1699 km, 63.3° (Epoch: 16 June)

Event Time Altitude Azimuth Distance (km) Brightness Sun altitude
Exits shadow 21:09:54 23° 95° (E) 918 4.2 -16.6°
Drops below altitude 10° 21:11:39 10° 65° (ENE) 1,434 5.5 -16.7°
Sets 21:13:43 0° 52° (NE) 2,262 6.7 -16.8°
